[[{"header":{"parameterUnit":"m.s-1","parameterCategory":1,"la1":30.2992,"la2":30.254,"lo1":-89.0895,"lo2":-89.0443,"dy":0.0025,"dx":0.0025,"nx":19,"ny":19,"refTime":"2026-04-05T21:00:00:Z","depth":0,"parameterNumber":2,"parameterNumberName":"U-component_of_WINDS"},"data":[0,0,0,-4.1073,-4.1074,-4.1103,-4.1103,-4.1165,-4.1165,0,0,0,0,0,0,0,0,0,0,0,-4.1076,-4.1077,-4.1073,-4.1074,-4.1103,-4.1103,-4.1165,-4.1166,0,0,0,0,0,0,0,0,0,0,0,-4.1076,-4.1077,-4.1078,-4.1074,-4.1103,-4.1103,-4.1164,-4.1134,0,0,0,0,0,0,0,0,0,0,-4.1102,-4.1116,-4.1077,-4.1078,-4.1074,-4.1103,-4.1103,-4.1133,-4.1136,-4.1161,0,-4.1184,0,-4.1176,-4.1171,-4.1171,0,0,0,-4.1066,-4.1113,-4.111,-4.1078,-4.1075,-4.1103,-4.1087,-4.1134,-4.1139,-4.1166,-4.1185,-4.1186,-4.1177,-4.1171,-4.1172,-4.134,-4.1342,0,0,-4.1064,-4.1088,-4.1107,-4.1113,-4.1107,-4.1087,-4.1089,-4.1137,-4.1159,-4.1185,-4.1188,-4.1178,-4.1172,-4.1173,-4.1339,-4.1341,0,0,0,-4.1065,-4.1088,-4.1083,-4.1111,-4.1115,-4.1088,-4.109,-4.1157,-4.1153,-4.1188,-4.1179,-4.1173,-4.1174,-4.1338,-4.134,-4.1424,0,0,0,-4.1064,-4.1088,-4.1083,-4.1098,-4.1114,-4.1136,-4.111,-4.115,-4.1155,-4.1178,-4.1173,-4.1174,-4.1337,-4.1339,-4.1419,-4.1461,0,0,0,-4.107,-4.1089,-4.1097,-4.1099,-4.1112,-4.1134,-4.1133,-4.115,-4.115,-4.1171,-4.1175,-4.1336,-4.1339,-4.1414,-4.1453,-4.1516,0,0,0,-4.1085,-4.117,-4.1099,-4.119,-4.1112,-4.1185,-4.1132,-4.1185,-4.1214,-4.1173,-4.1337,-4.134,-4.1413,-4.1448,-4.1511,-4.1575,-4.1603,0,0,-4.1206,-4.1185,-4.1237,-4.1174,-4.1266,-4.1178,-4.1283,-4.1286,-4.1266,-4.1318,-4.1321,-4.1421,-4.1453,-4.1515,-4.1745,-4.1767,0,0,0,-4.1284,-4.1323,-4.1341,-4.1369,-4.1373,-4.1382,-4.1365,-4.1367,-4.141,-4.1296,-4.1457,-4.1476,-4.1511,-4.1541,-4.156,-4.1591,-4.1353,-4.1353,-4.1353,-4.1493,-4.1462,-4.1548,-4.1522,-4.155,-4.1534,-4.1555,-4.1555,-4.1515,-4.1554,-4.1571,-4.1714,-4.1749,-4.1764,-4.1796,-4.1599,-4.1599,-4.1599,-4.16,-4.1671,-4.1723,-4.1668,-4.1732,-4.1701,-4.1755,-4.1744,-4.1715,-4.1764,-4.1698,-4.1728,-4.1663,-4.1789,-4.1816,-4.1606,-4.1605,-4.1604,-4.1603,-4.1603,-4.1808,-4.1827,-4.1827,-4.1866,-4.1901,-4.1871,-4.1921,-4.189,-4.1861,-4.189,-4.1907,-4.1905,-4.1904,-4.1899,-4.19,-4.19,-4.1901,-4.1901,-4.1901,-4.1951,-4.1948,-4.1993,-4.2005,-4.2021,-4.2038,-4.2024,-4.204,-4.2049,-4.2023,-4.2023,-4.1984,-4.1805,-4.1764,-4.1909,-4.1908,-4.1907,-4.1906,-4.1906,-4.215,-4.21,-4.217,-4.2186,-4.22,-4.2239,-4.2197,-4.2233,-4.2241,-4.2268,-4.2221,-4.2092,-4.207,-4.2055,-4.202,-4.2224,-4.2224,-4.2224,-4.2224,-4.2269,-4.2253,-4.2319,-4.2347,-4.2371,-4.2341,-4.2426,-4.2417,-4.24,-4.2405,-4.237,-4.2321,-4.2306,-4.2292,-4.2272,-4.224,-4.2494,-4.2494,-4.2495,-4.2392,-4.2377,-4.2454,-4.2435,-4.2445,-4.2455,-4.2535,-4.2573,-4.2543,-4.2505,-4.2409,-4.2398,-4.2317,-4.2291,-4.2255,-4.2224,-4.2164,0,0]},{"header":{"parameterUnit":"m.s-1","parameterCategory":1,"la1":30.2992,"la2":30.254,"lo1":-89.0895,"lo2":-89.0443,"dy":0.0025,"dx":0.0025,"nx":19,"ny":19,"refTime":"2026-04-05T21:00:00:Z","depth":0,"parameterNumber":3,"parameterNumberName":"V-component_of_WINDS"},"data":[0,0,0,-0.2789,-0.2791,-0.2864,-0.2865,-0.2961,-0.2961,0,0,0,0,0,0,0,0,0,0,0,-0.2765,-0.2765,-0.2789,-0.2791,-0.2864,-0.2865,-0.296,-0.2961,0,0,0,0,0,0,0,0,0,0,0,-0.2765,-0.2765,-0.2766,-0.2791,-0.2864,-0.2865,-0.296,-0.2905,0,0,0,0,0,0,0,0,0,0,-0.2833,-0.2808,-0.2765,-0.2766,-0.2791,-0.2864,-0.2865,-0.2902,-0.2908,-0.2927,0,-0.294,0,-0.2952,-0.2968,-0.2968,0,0,0,-0.2793,-0.2803,-0.2824,-0.2766,-0.2792,-0.2864,-0.2832,-0.2906,-0.2912,-0.2935,-0.2941,-0.2945,-0.2953,-0.2968,-0.2969,-0.306,-0.306,0,0,-0.2789,-0.2778,-0.2819,-0.2829,-0.2814,-0.283,-0.2834,-0.291,-0.2917,-0.2941,-0.2947,-0.2955,-0.2969,-0.2969,-0.3059,-0.306,0,0,0,-0.2776,-0.2775,-0.2795,-0.2825,-0.2837,-0.2832,-0.2837,-0.2914,-0.2921,-0.2948,-0.2956,-0.2969,-0.297,-0.3059,-0.3059,-0.3064,0,0,0,-0.2773,-0.2767,-0.2793,-0.2786,-0.2836,-0.2876,-0.2839,-0.2916,-0.2925,-0.2955,-0.2969,-0.2971,-0.3059,-0.3059,-0.3063,-0.3069,0,0,0,-0.2761,-0.2765,-0.2775,-0.2786,-0.2816,-0.2875,-0.2887,-0.2918,-0.2929,-0.2968,-0.2972,-0.3058,-0.3059,-0.3062,-0.3068,-0.3091,0,0,0,-0.2745,-0.2778,-0.2775,-0.2815,-0.2816,-0.2875,-0.2886,-0.2932,-0.2965,-0.297,-0.3059,-0.3059,-0.3062,-0.3067,-0.309,-0.311,-0.3117,0,0,-0.2781,-0.2782,-0.2806,-0.2806,-0.2862,-0.2865,-0.2924,-0.2966,-0.2982,-0.3034,-0.3036,-0.3063,-0.3067,-0.3091,-0.3152,-0.3157,0,0,0,-0.2814,-0.2832,-0.2849,-0.2879,-0.291,-0.2939,-0.2973,-0.2989,-0.3034,-0.3005,-0.3077,-0.308,-0.3094,-0.3105,-0.3109,-0.3123,-0.3063,-0.3063,-0.3063,-0.285,-0.2866,-0.2908,-0.2933,-0.2962,-0.2996,-0.3023,-0.3051,-0.3059,-0.3076,-0.3093,-0.3127,-0.3139,-0.3142,-0.3157,-0.3102,-0.3102,-0.3102,-0.3102,-0.2906,-0.2935,-0.2943,-0.2988,-0.3006,-0.3045,-0.308,-0.3084,-0.3125,-0.3116,-0.3129,-0.3121,-0.3147,-0.3161,-0.3103,-0.3103,-0.3102,-0.3102,-0.3102,-0.2933,-0.295,-0.2967,-0.3012,-0.3046,-0.307,-0.3108,-0.3123,-0.3137,-0.315,-0.3171,-0.3171,-0.3176,-0.3158,-0.3158,-0.3158,-0.3159,-0.3159,-0.3159,-0.2957,-0.2975,-0.3005,-0.304,-0.3062,-0.3092,-0.3127,-0.315,-0.3179,-0.3187,-0.3187,-0.3197,-0.3145,-0.3133,-0.3161,-0.316,-0.316,-0.316,-0.316,-0.3013,-0.3002,-0.3047,-0.3069,-0.3113,-0.3147,-0.3163,-0.3208,-0.3229,-0.3248,-0.3254,-0.3212,-0.3216,-0.3213,-0.3204,-0.3248,-0.3248,-0.3248,-0.3248,-0.3039,-0.304,-0.3091,-0.3124,-0.3159,-0.3178,-0.3233,-0.3261,-0.3288,-0.3303,-0.3298,-0.3286,-0.3282,-0.3288,-0.3284,-0.3276,-0.3337,-0.3337,-0.3337,-0.3076,-0.3081,-0.3124,-0.3148,-0.3183,-0.3214,-0.3267,-0.3308,-0.3337,-0.3341,-0.3316,-0.3312,-0.3293,-0.3285,-0.3292,-0.3284,-0.327,0,0]}]]